FW2897 Weather Reports


time (UTC)temp
F
wind
direction
speed
knots
gust
knots
rain 1hr
in
rain 24hr
in
rain mn
in
humidity
%
barometer
mb
20260504215059 74 155 1.7 9.6 0.00 0.00 0.00 33 1010.1
20260504214531 74 221 2.6 7.8 0.00 0.00 0.00 33 1010.1
20260504214031 74 143 2.6 7.8 0.00 0.00 0.00 33 1010.1
20260504213501 74 295 2.6 7.8 0.00 0.00 0.00 34 1010.3
20260504213001 74 317 1.7 7.8 0.00 0.00 0.00 33 1010.3
20260504212431 74 236 2.6 7.8 0.00 0.00 0.00 35 1010.1
20260504211930 74 222 2.6 11.3 0.00 0.00 0.00 35 1010.3
20260504211401 74 289 1.7 6.1 0.00 0.00 0.00 33 1010.3
20260504210900 75 222 1.7 8.7 0.00 0.00 0.00 33 1010.3
20260504210618 74 208 1.7 8.7 0.00 0.00 0.00 34 1010.1
20260504205831 74 312 1.7 8.7 0.00 0.00 0.00 33 1010.0
20260504205329 74 193 1.7 8.7 0.00 0.00 0.00 34 1010.0
20260504205035 74 201 1.7 5.2 0.00 0.00 0.00 33 1010.3
20260504204259 74 219 2.6 8.7 0.00 0.00 0.00 32 1010.4
20260504203731 74 234 2.6 8.7 0.00 0.00 0.00 32 1010.4
20260504203228 74 283 1.7 7.0 0.00 0.00 0.00 32 1010.5
20260504202702 74 316 2.6 8.7 0.00 0.00 0.00 32 1010.4
20260504202133 74 160 3.5 8.7 0.00 0.00 0.00 33 1010.5
20260504201634 74 321 2.6 7.8 0.00 0.00 0.00 32 1010.7
20260504201135 74 269 2.6 9.6 0.00 0.00 0.00 32 1010.6
20260504200635 74 231 3.5 9.6 0.00 0.00 0.00 32 1010.7
20260504200133 74 288 2.6 11.3 0.00 0.00 0.00 34 1010.8
20260504195904 73 245 3.5 11.3 0.00 0.00 0.00 34 1010.8
20260504195109 73 175 3.5 10.4 0.00 0.00 0.00 33 1010.9
20260504194606 74 179 2.6 10.4 0.00 0.00 0.00 32 1010.9
20260504194038 74 1 2.6 10.4 0.00 0.00 0.00 32 1011.0
20260504193757 74 197 1.7 10.4 0.00 0.00 0.00 33 1011.0
20260504193235 74 240 1.7 7.8 0.00 0.00 0.00 33 1011.0
20260504192507 73 232 2.6 7.8 0.00 0.00 0.00 33 1011.2
20260504191938 73 338 2.6 7.8 0.00 0.00 0.00 32 1011.4
20260504191436 73 75 2.6 5.2 0.00 0.00 0.00 33 1011.4
20260504190911 73 224 2.6 8.7 0.00 0.00 0.00 34 1011.4
20260504190606 73 150 1.7 7.0 0.00 0.00 0.00 35 1011.4
20260504185842 73 234 2.6 7.0 0.00 0.00 0.00 33 1011.4
20260504185317 73 244 2.6 7.0 0.00 0.00 0.00 32 1011.5
20260504184751 73 239 2.6 7.0 0.00 0.00 0.00 33 1011.5
20260504184221 73 335 1.7 6.1 0.00 0.00 0.00 32 1011.6
20260504183721 73 276 1.7 7.0 0.00 0.00 0.00 32 1011.7
20260504183154 73 245 1.7 7.0 0.00 0.00 0.00 34 1011.7
20260504182625 72 236 1.7 8.7 0.00 0.00 0.00 35 1011.8
20260504182101 73 174 2.6 9.6 0.00 0.00 0.00 33 1011.9
20260504181557 72 217 2.6 9.6 0.00 0.00 0.00 31 1012.0
20260504181053 73 275 1.7 6.1 0.00 0.00 0.00 33 1012.1
20260504180751 73 204 2.6 6.1 0.00 0.00 0.00 34 1012.2
20260504180028 72 196 2.6 9.6 0.00 0.00 0.00 35 1012.2
20260504175525 72 216 2.6 9.6 0.00 0.00 0.00 32 1012.2
20260504175026 73 139 1.7 6.1 0.00 0.00 0.00 32 1012.2
20260504174459 73 13 1.7 4.3 0.00 0.00 0.00 35 1012.4
20260504173958 72 303 2.6 9.6 0.00 0.00 0.00 33 1012.3
20260504173432 72 176 2.6 9.6 0.00 0.00 0.00 32 1012.4
20260504172931 72 291 2.6 7.8 0.00 0.00 0.00 32 1012.6
20260504172651 72 212 1.7 7.0 0.00 0.00 0.00 32 1012.6
20260504171940 72 311 1.7 5.2 0.00 0.00 0.00 33 1012.7
20260504171420 72 323 1.7 4.3 0.00 0.00 0.00 33 1012.8
20260504170912 72 354 1.7 6.1 0.00 0.00 0.00 32 1012.8
20260504170403 72 122 1.7 5.2 0.00 0.00 0.00 33 1012.8
20260504160135 69 202 2.6 6.1 0.00 0.00 0.00 34 1013.9
20260504150913 68 197 0.9 4.3 0.00 0.00 0.00 42 1014.0
20260504150349 67 265 0.9 5.2 0.00 0.00 0.00 40 1014.1
20260504140534 63 102 1.7 7.0 0.00 0.00 0.00 53 1014.2
20260504110238 49 220 0.0 0.9 0.00 0.00 0.00 78 1015.2
20260504100536 46 258 0.0 0.9 0.00 0.00 0.00 76 1015.4
20260504081158 46 241 0.0 0.0 0.00 0.00 0.00 72 1015.4
20260504080635 46 241 0.0 0.0 0.00 0.00 0.00 71 1015.4
20260504080336 47 241 0.0 0.0 0.00 0.00 0.00 70 1015.2
20260504060113 50 267 0.9 2.6 0.00 0.00 0.00 64 1014.9
20260504050417 50 308 0.0 1.7 0.00 0.00 0.00 59 1015.0
20260504045913 50 295 0.0 1.7 0.00 0.00 0.00 58 1015.0
20260504045348 50 323 0.0 1.7 0.00 0.00 0.00 57 1015.1
20260504045041 50 314 0.0 2.6 0.00 0.00 0.00 56 1015.1
20260504044520 50 323 0.0 1.7 0.00 0.00 0.00 54 1015.1
20260504043727 50 296 0.0 1.7 0.00 0.00 0.00 54 1015.0
20260504043227 50 299 0.0 0.9 0.00 0.00 0.00 53 1014.9
20260504042658 50 307 0.0 0.0 0.00 0.00 0.00 53 1014.9
20260504042156 51 299 0.0 0.9 0.00 0.00 0.00 52 1014.9
20260504041643 51 299 0.0 0.9 0.00 0.00 0.00 52 1014.8
20260504041125 51 299 0.0 0.9 0.00 0.00 0.00 51 1014.8
20260504040621 51 298 0.0 0.9 0.00 0.00 0.00 51 1014.8
20260504040118 51 298 0.0 0.9 0.00 0.00 0.00 51 1014.8
20260504035556 51 298 0.0 0.9 0.00 0.00 0.00 51 1014.7
20260504035042 51 300 0.0 0.9 0.00 0.00 0.00 51 1014.6
20260504034807 51 299 0.0 0.9 0.00 0.00 0.00 51 1014.6
20260504034301 51 300 0.0 0.9 0.00 0.00 0.00 51 1014.6
20260504033513 51 300 0.0 0.9 0.00 0.00 0.00 51 1014.7
20260504033002 51 300 0.0 0.9 0.00 0.00 0.00 51 1014.6
20260504032727 51 300 0.0 0.9 0.00 0.00 0.00 50 1014.7
20260504031958 51 300 0.0 0.9 0.00 0.00 0.00 50 1014.6
20260504031725 51 300 0.0 0.9 0.00 0.00 0.00 50 1014.6
20260504031416 51 300 0.0 0.9 0.00 0.00 0.00 50 1014.6
20260504030426 51 295 0.0 0.9 0.00 0.00 0.00 50 1014.5
20260504025901 51 295 0.0 0.9 0.00 0.00 0.00 50 1014.6
20260504025333 51 295 0.0 0.9 0.00 0.00 0.00 49 1014.6
20260504024832 51 295 0.0 0.9 0.00 0.00 0.00 49 1014.6
20260504024306 51 295 0.0 0.9 0.00 0.00 0.00 49 1014.6
20260504023736 52 295 0.0 2.6 0.00 0.00 0.00 49 1014.6
20260504023235 52 295 0.0 2.6 0.00 0.00 0.00 48 1014.6
20260504022707 52 283 0.0 0.9 0.00 0.00 0.00 48 1014.6
20260504022203 52 283 0.0 0.9 0.00 0.00 0.00 49 1014.6
20260504021640 52 283 0.0 0.9 0.00 0.00 0.00 49 1014.6
20260504021124 52 283 0.0 0.9 0.00 0.00 0.00 48 1014.6
20260504020626 52 283 0.0 0.9 0.00 0.00 0.00 48 1014.7
20260504020107 52 283 0.0 0.9 0.00 0.00 0.00 49 1014.6
20260504015820 52 283 0.0 0.9 0.00 0.00 0.00 49 1014.6
20260504015027 52 283 0.0 0.9 0.00 0.00 0.00 49 1014.6
20260504014508 52 283 0.0 0.9 0.00 0.00 0.00 49 1014.5
20260504014226 51 283 0.0 0.9 0.00 0.00 0.00 50 1014.5
20260504013501 51 283 0.0 0.9 0.00 0.00 0.00 50 1014.5
20260504012942 52 283 0.0 0.9 0.00 0.00 0.00 50 1014.5
20260504012423 52 284 0.0 0.0 0.00 0.00 0.00 50 1014.4
20260504011911 52 284 0.0 0.0 0.00 0.00 0.00 49 1014.3
20260504011409 52 284 0.0 0.9 0.00 0.00 0.00 48 1014.3
20260504011135 53 284 0.0 0.9 0.00 0.00 0.00 48 1014.2
20260504010405 53 284 0.0 0.9 0.00 0.00 0.00 47 1014.1
20260504005844 53 284 0.0 0.9 0.00 0.00 0.00 46 1014.1
20260504005321 54 284 0.0 0.0 0.00 0.00 0.00 45 1014.0
20260504005028 54 284 0.0 0.0 0.00 0.00 0.00 44 1013.9
20260504004245 54 284 0.0 0.0 0.00 0.00 0.00 44 1013.9
20260504003730 55 284 0.0 0.9 0.00 0.00 0.00 43 1013.7
20260504003204 55 284 0.0 0.9 0.00 0.00 0.00 42 1013.6
20260504003143 56 284 0.0 0.9 0.00 0.00 0.00 41 1013.6
20260504002131 56 284 0.0 0.9 0.00 0.00 0.00 40 1013.5
20260504001632 56 284 0.0 0.9 0.00 0.00 0.00 39 1013.4
20260504001355 57 284 0.0 0.9 0.00 0.00 0.00 38 1013.3
20260504000620 57 284 0.0 1.7 0.00 0.00 0.00 37 1013.4
20260504000120 58 284 0.0 1.7 0.00 0.00 0.00 37 1013.3
20260503235557 58 284 0.9 5.2 0.00 0.00 0.00 36 1013.3
20260503235040 58 328 0.9 5.2 0.00 0.00 0.00 35 1013.2
20260503234515 58 250 0.0 4.3 0.00 0.00 0.00 35 1013.3
20260503234012 59 282 0.0 2.6 0.00 0.00 0.00 35 1013.2
20260503233717 59 303 0.0 1.7 0.00 0.00 0.00 34 1013.1
20260503232947 59 279 0.9 1.7 0.00 0.00 0.00 34 1013.1
20260503232408 60 287 0.9 5.2 0.00 0.00 0.00 33 1013.1
20260503231906 60 309 1.7 5.2 0.00 0.00 0.00 33 1013.0
20260503231403 61 283 1.7 4.3 0.00 0.00 0.00 32 1013.0
20260503231345 61 301 1.7 7.0 0.00 0.00 0.00 31 1013.0
20260503230625 61 333 1.7 7.0 0.00 0.00 0.00 31 1012.9
20260503225831 61 233 1.7 6.1 0.00 0.00 0.00 31 1012.9
20260503225300 61 329 0.9 6.1 0.00 0.00 0.00 32 1012.9
20260503224736 61 295 1.7 6.1 0.00 0.00 0.00 32 1013.0
20260503224228 61 297 2.6 7.0 0.00 0.00 0.00 31 1012.9
20260503223726 60 330 3.5 10.4 0.00 0.00 0.00 31 1012.9
20260503223220 61 216 3.5 10.4 0.00 0.00 0.00 31 1012.9
20260503222719 61 248 3.5 8.7 0.00 0.00 0.00 30 1013.0
20260503222431 61 284 2.6 9.6 0.00 0.00 0.00 30 1013.0
20260503221708 61 278 2.6 9.6 0.00 0.00 0.00 30 1012.9
20260503221141 62 293 3.5 12.2 0.00 0.00 0.00 31 1013.0
20260503220616 61 307 3.5 12.2 0.00 0.00 0.00 31 1012.9
20260503220104 62 293 2.6 9.6 0.00 0.00 0.00 30 1013.0